Regional Weather Roundup
Issued by NWS

Home | Current Version | Previous Version | Graphics & Text | Print | Product List | Glossary On
Versions: 1 2 3 4 5 6 7 8 9 10 11 12 13 14 15 16 17 18 19 20 21 22 23 24 25 26 27 28 29 30 31 32 33 34 35 36 37 38 39 40 41 42 43 44 45 46 47 48 49 50
000
ASUS43 KFSD 060410
RWRSD

WEATHER ROUNDUP FOR SOUTH DAKOTA
NATIONAL WEATHER SERVICE SIOUX FALLS SD
1100 PM CDT TUE MAY 05 2015

NOTE: "FAIR" INDICATES FEW OR NO CLOUDS BELOW 12,000 FEET WITH NO
SIGNIFICANT WEATHER AND/OR OBSTRUCTIONS TO VISIBILITY.


SDZ001>005-009-010-012>017-060500-
NORTHWEST AND NORTH CENTRAL SOUTH DAKOTA

CITY           SKY/WX    TMP DP  RH WIND       PRES   REMARKS
BUFFALO          N/A     59  50  72 SE21      29.72S
FAITH            N/A     58  53  84 SE18G25   29.84R
MOBRIDGE       CLOUDY    60  54  80 SE10      29.87R
$$

SDZ012>016-024>037-041>051-057-063-072>074-060500-
SOUTHWEST AND SOUTH CENTRAL SOUTH DAKOTA

CITY           SKY/WX    TMP DP  RH WIND       PRES   REMARKS
RAPID CTY ARPT CLOUDY    59  52  77 SE12      29.83S
PIERRE         CLOUDY    58  57  97 SE8       29.89R
CUSTER         CLOUDY    49  47  93 S9        29.88F
ELLSWORTH AFB  CLOUDY    59  52  78 S18       29.82S
PHILIP         LGT RAIN  60  57  89 SE8       29.86S
PINE RIDGE     CLOUDY    56  50  80 E8        29.84F
SPEARFISH      FAIR      57  46  67 E8        29.80R
WINNER         FAIR      59  56  89 SE7       29.89F FOG
$$

SDZ004>011-016>023-039-040-060500-
NORTHEAST SOUTH DAKOTA

CITY           SKY/WX    TMP DP  RH WIND       PRES   REMARKS
ABERDEEN       CLOUDY    63  57  81 SE14      29.95R
WATERTOWN      CLOUDY    59  55  87 SE12G21   30.00S
BROOKINGS      CLOUDY    61  57  88 SE16      30.02S
SISSETON         N/A     61  55  81 S17       29.99S
$$

SDZ017-020-022-023-036>040-048>070-060500-
SOUTHEAST SOUTH DAKOTA

CITY           SKY/WX    TMP DP  RH WIND       PRES   REMARKS
SIOUX FALLS    CLOUDY    62  59  90 SE16      29.99S
HURON          MOCLDY    62  57  83 SE9       29.93F
CHAMBERLAIN    CLOUDY    58  57  96 SE9       29.90F FOG
MITCHELL       CLOUDY    63  59  87 SE13      29.94S
YANKTON        CLOUDY    64  55  72 E8        29.94S
$$

ABBREVIATIONS USED IN REMARKS
   TC - TEMPERATURE IN CELSIUS
  WCI - WIND CHILL INDEX
   HX - HEAT INDEX
  VSB - VISIBILITY




USA.gov is the U.S. government's official web portal to all federal, state and local government web resources and services.